Location: Unspecified
(25.1408°N, 0.0000°E)
Time: 11:15:52
(UTC+00:00)

CZ-6A DEB - Visible Passes

Search period start: 04 April 2026 00:00
Search period end: 14 April 2026 00:00
Orbit: 792 x 828 km, 89.0° (Epoch: 29 March)

Date Brightness Start Highest point End Pass type
(mag) Time Alt. Az. Time Alt. Az. Time Alt. Az.
4 Apr ? 05:08:28 10° SE 05:12:50 27° E 05:17:13 10° NNE visible
4 Apr ? 19:16:52 10° WNW 19:17:32 10° WNW 19:18:10 10° W visible
5 Apr ? 04:45:56 10° ESE 04:49:11 17° E 04:52:27 10° NE visible
5 Apr ? 18:50:27 10° NW 18:53:55 18° W 18:57:25 10° WSW visible
8 Apr ? 05:13:25 10° SSE 05:18:28 49° E 05:23:32 10° NNE visible
9 Apr ? 04:50:14 10° SE 04:54:46 30° E 04:59:18 10° NNE visible
10 Apr ? 04:27:34 10° ESE 04:31:06 19° E 04:34:39 10° NE visible
11 Apr ? 04:06:15 10° E 04:07:30 11° ENE 04:08:44 10° ENE visible
13 Apr ? 04:55:16 10° SSE 05:00:23 55° E 05:05:32 10° N visible
